[[{"header":{"parameterUnit":"m.s-1","parameterCategory":1,"la1":30.2991,"la2":30.254,"lo1":-89.0895,"lo2":-89.0444,"dy":0.0017,"dx":0.0017,"nx":28,"ny":28,"refTime":"2025-07-26T03:00:00:Z","depth":0,"parameterNumber":2,"parameterNumberName":"U-component_of_WINDS"},"data":[0,0,0,0,0,0,0,0,0,0,0,0,0,0,0,0,0,0,0,0,0,0,0,0,0,0,0,0,0,0,0,0,0,0,0,0,0,0,0,0,0,0,0,0,0,0,0,0,0,0,0,0,0,0,0,0,0,0,-0.5586,-0.5588,0,-0.5755,-0.5757,-0.5759,-0.5858,-0.5858,-0.5859,-0.5859,-0.604,-0.6044,-0.6049,0,0,0,0,0,0,0,0,0,0,0,0,0,-0.5355,-0.5359,-0.5586,-0.5588,-0.559,-0.5755,-0.5757,-0.576,-0.5858,-0.5858,-0.5859,-0.5859,-0.6038,-0.6044,-0.6049,0,0,0,0,0,0,0,0,0,0,0,0,0,-0.5483,-0.536,-0.5586,-0.5659,-0.5667,-0.5755,-0.5758,-0.576,-0.5858,-0.5858,-0.5859,-0.5859,-0.6037,-0.6043,-0.605,-0.608,0,0,-0.607,-0.6073,0,0,0,0,0,0,0,0,-0.5476,-0.5492,-0.5646,-0.5654,-0.5663,-0.5786,-0.5743,-0.5868,-0.5858,-0.5786,-0.5859,-0.586,-0.5955,-0.5969,-0.6,-0.6088,-0.6096,-0.6071,-0.6075,-0.6078,-0.608,0,0,0,0,0,0,0,-0.5467,-0.5485,-0.5653,-0.5648,-0.5659,-0.5686,-0.5704,-0.5767,-0.5866,-0.5792,-0.5799,-0.5818,-0.596,-0.5993,-0.6005,-0.6099,-0.6071,-0.6077,-0.6081,-0.6083,-0.6222,-0.6222,0,0,0,0,0,0,-0.5445,-0.5477,-0.5648,-0.5658,-0.5569,-0.5689,-0.571,-0.5746,-0.5865,-0.5884,-0.5817,-0.5822,-0.5981,-0.5997,-0.6011,-0.6055,-0.6078,-0.6084,-0.6088,-0.6222,-0.6222,-0.6221,0,0,0,0,0,0,-0.544,-0.5459,-0.5641,-0.557,-0.5595,-0.5693,-0.5732,-0.5749,-0.5782,-0.5884,-0.5903,-0.5832,-0.5982,-0.6002,-0.6062,-0.6062,-0.6087,-0.6093,-0.6223,-0.6222,-0.6222,-0.6141,0,0,0,0,0,0,-0.5433,-0.5457,-0.5468,-0.5569,-0.5598,-0.5686,-0.5732,-0.5752,-0.5792,-0.58,-0.5903,-0.592,-0.5984,-0.6051,-0.6068,-0.6072,-0.6098,-0.6223,-0.6222,-0.6222,-0.6144,-0.6138,-0.6133,0,0,0,0,0,-0.5424,-0.544,-0.5468,-0.5488,-0.5613,-0.5686,-0.5703,-0.5774,-0.5792,-0.5805,-0.587,-0.5917,-0.6059,-0.6056,-0.6077,-0.6082,-0.6223,-0.6223,-0.6222,-0.6147,-0.6139,-0.6133,0,0,0,0,0,0,-0.5339,-0.5455,-0.5487,-0.5535,-0.5599,-0.5702,-0.5721,-0.5764,-0.5826,-0.5831,-0.5919,-0.5942,-0.5993,-0.6044,-0.6039,-0.6118,-0.6147,-0.615,-0.6083,-0.6076,-0.6071,-0.6058,-0.6104,0,0,0,0,0,-0.5325,-0.5372,-0.5472,-0.5505,-0.5535,-0.5622,-0.5657,-0.5705,-0.5777,-0.5805,-0.5876,-0.5945,-0.6006,-0.6044,-0.6106,-0.6152,-0.6177,-0.6166,-0.616,-0.6155,-0.6157,-0.6186,-0.6183,-0.6219,-0.6219,-0.6219,0,0,-0.5299,-0.5367,-0.5392,-0.549,-0.5545,-0.5594,-0.5645,-0.5694,-0.5732,-0.5814,-0.5874,-0.5928,-0.6012,-0.6065,-0.6092,-0.6109,-0.6152,-0.6154,-0.6149,-0.6154,-0.6185,-0.6181,-0.6178,-0.6218,-0.6219,-0.6219,0,0,-0.5275,-0.5331,-0.5365,-0.5419,-0.5501,-0.5559,-0.5567,-0.5663,-0.5701,-0.5762,-0.5825,-0.5872,-0.5975,-0.6032,-0.6074,-0.6071,-0.6117,-0.6089,-0.6059,-0.6086,-0.6083,-0.6081,-0.608,-0.6079,-0.609,-0.609,-0.609,0,-0.5232,-0.5305,-0.5377,-0.5423,-0.5464,-0.5538,-0.5574,-0.5624,-0.5724,-0.5752,-0.5769,-0.5898,-0.596,-0.6028,-0.6027,-0.6059,-0.6072,-0.6078,-0.6077,-0.6076,-0.6075,-0.6075,-0.6075,-0.6086,-0.6087,-0.6087,-0.6088,0,-0.5248,-0.5298,-0.5316,-0.5407,-0.5451,-0.5492,-0.5572,-0.5609,-0.5653,-0.571,-0.5772,-0.5848,-0.5926,-0.5946,-0.5992,-0.602,-0.6028,-0.606,-0.609,-0.6066,-0.6068,-0.6069,-0.6081,-0.6082,-0.6083,-0.6084,0,0,-0.5176,-0.5305,-0.5311,-0.5353,-0.5449,-0.5491,-0.5536,-0.5609,-0.5639,-0.5705,-0.5746,-0.583,-0.586,-0.5908,-0.5961,-0.5985,-0.5978,-0.6014,-0.6018,-0.6005,-0.6015,-0.599,-0.5989,-0.6008,-0.6009,-0.6009,-0.6008,0,-0.5167,-0.5247,-0.5313,-0.537,-0.5418,-0.5488,-0.5528,-0.5592,-0.5646,-0.5697,-0.5758,-0.5816,-0.585,-0.588,-0.5906,-0.5972,-0.5981,-0.5974,-0.6049,-0.6051,-0.6025,-0.599,-0.5965,-0.596,-0.6009,-0.6009,-0.601,0,-0.5166,-0.5226,-0.5287,-0.5378,-0.5401,-0.5434,-0.5507,-0.5554,-0.5629,-0.5667,-0.5719,-0.5774,-0.5827,-0.5851,-0.5926,-0.5919,-0.5954,-0.5992,-0.5993,-0.6003,-0.6029,-0.5999,-0.596,-0.5959,-0.6011,-0.6011,-0.6011,0,-0.5107,-0.5204,-0.5253,-0.5287,-0.5394,-0.5416,-0.5462,-0.5538,-0.5578,-0.5643,-0.567,-0.5741,-0.578,-0.5834,-0.5907,-0.5918,-0.5975,-0.6005,-0.6009,-0.6007,-0.6018,-0.6016,-0.5983,-0.604,-0.604,-0.604,-0.604,0,-0.509,-0.5124,-0.5228,-0.5257,-0.5299,-0.5376,-0.5415,-0.5468,-0.5535,-0.5578,-0.5645,-0.5684,-0.5778,-0.583,-0.5888,-0.5941,-0.5958,-0.5991,-0.6006,-0.5986,-0.5981,-0.601,-0.6012,-0.604,-0.604,-0.604,-0.604,0,-0.5032,-0.5102,-0.5159,-0.5255,-0.528,-0.5306,-0.539,-0.5423,-0.548,-0.5534,-0.5551,-0.5642,-0.5706,-0.5784,-0.5874,-0.5913,-0.5961,-0.5984,-0.5934,-0.5943,-0.5942,-0.5941,-0.5927,-0.5929,-0.5983,-0.5982,-0.5982,0,-0.5016,-0.5043,-0.5141,-0.5173,-0.5216,-0.5268,-0.5308,-0.5386,-0.5425,-0.5513,-0.5536,-0.5604,-0.5663,-0.5763,-0.5839,-0.5908,-0.5933,-0.5923,-0.5944,-0.5922,-0.5933,-0.5931,-0.5934,-0.5918,-0.5917,-0.5916,-0.5915,0,-0.498,-0.5013,-0.5067,-0.5133,-0.5178,-0.5235,-0.5295,-0.5318,-0.5408,-0.545,-0.5514,-0.556,-0.5651,-0.5719,-0.5797,-0.5849,-0.5897,-0.5908,-0.5913,-0.5892,-0.5862,-0.5878,-0.592,-0.5908,-0.5909,-0.5909,-0.591,-0.591,-0.4944,-0.4971,-0.5043,-0.5101,-0.5154,-0.5208,-0.5243,-0.5303,-0.5357,-0.5435,-0.5478,-0.5542,-0.5618,-0.5729,-0.5777,-0.583,-0.5848,-0.5854,-0.5856,-0.5857,-0.585,-0.5853,-0.5845,-0.5845,-0.5846,-0.5846,-0.5846,0,-0.4912,-0.4961,-0.5013,-0.5093,-0.5139,-0.5178,-0.5246,-0.5282,-0.5337,-0.5402,-0.5457,-0.5532,-0.5598,-0.5678,-0.575,-0.5777,-0.5801,-0.5793,-0.5792,-0.5803,-0.583,-0.5819,-0.5772,-0.5772,-0.5772,-0.5772,-0.5772,-0.5772,-0.49,-0.4949,-0.499,-0.5066,-0.5117,-0.5177,-0.5213,-0.5264,-0.5316,-0.5395,-0.5449,-0.55,-0.5572,-0.5649,-0.5712,-0.5734,-0.5758,-0.5743,-0.5771,-0.5795,-0.5802,-0.5808,-0.5798,-0.5747,-0.5747,-0.574,-0.574,-0.574]},{"header":{"parameterUnit":"m.s-1","parameterCategory":1,"la1":30.2991,"la2":30.254,"lo1":-89.0895,"lo2":-89.0444,"dy":0.0017,"dx":0.0017,"nx":28,"ny":28,"refTime":"2025-07-26T03:00:00:Z","depth":0,"parameterNumber":3,"parameterNumberName":"V-component_of_WINDS"},"data":[0,0,0,0,0,0,0,0,0,0,0,0,0,0,0,0,0,0,0,0,0,0,0,0,0,0,0,0,0,0,0,0,0,0,0,0,0,0,0,0,0,0,0,0,0,0,0,0,0,0,0,0,0,0,0,0,0,0,5.3642,5.3643,0,5.3713,5.3714,5.3714,5.3656,5.3654,5.3651,5.3649,5.3718,5.3722,5.3726,0,0,0,0,0,0,0,0,0,0,0,0,0,5.3453,5.3457,5.3642,5.3643,5.3644,5.3713,5.3714,5.3715,5.3657,5.3654,5.3651,5.3648,5.3716,5.3721,5.3726,0,0,0,0,0,0,0,0,0,0,0,0,0,5.3531,5.3458,5.3642,5.3623,5.3623,5.3712,5.3714,5.3715,5.3657,5.3654,5.365,5.3647,5.3715,5.3721,5.3727,5.3837,0,0,5.3745,5.3748,0,0,0,0,0,0,0,0,5.3526,5.3538,5.3625,5.3625,5.3624,5.3672,5.3672,5.3756,5.3658,5.3644,5.3649,5.3645,5.3705,5.3712,5.3733,5.3841,5.3844,5.3746,5.375,5.3752,5.3754,0,0,0,0,0,0,0,5.3521,5.3534,5.367,5.3627,5.3626,5.361,5.3617,5.3688,5.3694,5.3645,5.3641,5.365,5.3704,5.3727,5.3734,5.3845,5.3746,5.3751,5.3755,5.3757,5.4045,5.4049,0,0,0,0,0,0,5.3518,5.353,5.3668,5.3672,5.3565,5.3617,5.3624,5.366,5.3693,5.3695,5.3653,5.3647,5.3719,5.3727,5.3736,5.3867,5.3752,5.3758,5.3762,5.4042,5.4046,5.4051,0,0,0,0,0,0,5.3514,5.3531,5.3665,5.36,5.3616,5.3624,5.3664,5.3664,5.3687,5.37,5.37,5.3676,5.3716,5.3728,5.3813,5.3869,5.3761,5.3766,5.4037,5.4043,5.4049,5.413,0,0,0,0,0,0,5.3509,5.353,5.3573,5.3602,5.362,5.3741,5.3668,5.3668,5.3698,5.3691,5.3721,5.3722,5.3714,5.3804,5.3819,5.3875,5.3771,5.4032,5.404,5.4047,5.4123,5.4138,5.4152,0,0,0,0,0,5.3503,5.3593,5.3575,5.3592,5.3674,5.3745,5.3755,5.3745,5.3703,5.3745,5.3753,5.3721,5.3861,5.3813,5.3829,5.3888,5.4028,5.4037,5.4046,5.4116,5.4135,5.4151,0,0,0,0,0,0,5.3569,5.3596,5.3577,5.3679,5.3711,5.3735,5.3788,5.3765,5.3808,5.3799,5.3783,5.3791,5.388,5.3893,5.384,5.3997,5.3937,5.395,5.3985,5.4003,5.4018,5.4012,5.3776,0,0,0,0,0,5.3596,5.3652,5.3672,5.376,5.3777,5.378,5.3811,5.38,5.3831,5.3844,5.3858,5.3888,5.3938,5.3972,5.4019,5.4125,5.413,5.4173,5.4188,5.42,5.421,5.4266,5.4285,5.408,5.408,5.408,0,0,5.3651,5.3673,5.3709,5.3774,5.3797,5.3855,5.3792,5.3855,5.3897,5.3853,5.3934,5.3946,5.3978,5.4074,5.4117,5.4087,5.4269,5.4211,5.4221,5.4225,5.4277,5.4297,5.4314,5.4086,5.4085,5.4084,0,0,5.3781,5.3804,5.3879,5.3904,5.3939,5.3941,5.3959,5.3988,5.3994,5.4076,5.4043,5.4093,5.418,5.4204,5.4228,5.4368,5.434,5.4384,5.4459,5.4514,5.453,5.4544,5.4593,5.4611,5.4395,5.4395,5.4395,0,5.3844,5.3931,5.392,5.3987,5.4016,5.398,5.4055,5.4079,5.4128,5.4148,5.4115,5.4224,5.4243,5.4344,5.4378,5.4399,5.4418,5.4379,5.4529,5.4543,5.4556,5.4602,5.4621,5.44,5.4399,5.4399,5.4398,0,5.4007,5.4068,5.4124,5.4174,5.4209,5.428,5.4278,5.4316,5.4302,5.4307,5.439,5.4413,5.4463,5.4487,5.4474,5.4585,5.4566,5.4532,5.4471,5.4581,5.4624,5.4642,5.4407,5.4405,5.4404,5.4403,0,0,5.4179,5.4223,5.4243,5.4265,5.4302,5.4348,5.4417,5.4468,5.4499,5.4534,5.459,5.4666,5.4634,5.4661,5.4651,5.4699,5.4807,5.4658,5.4659,5.4684,5.493,5.4954,5.4975,5.4789,5.4793,5.4795,5.4926,0,5.4309,5.443,5.4423,5.4535,5.459,5.4557,5.4617,5.4645,5.4652,5.4699,5.4705,5.4758,5.4713,5.4729,5.4776,5.4784,5.4856,5.4775,5.484,5.4842,5.4831,5.4998,5.5024,5.5147,5.4943,5.4946,5.4948,0,5.4477,5.4519,5.4638,5.4667,5.4689,5.4743,5.4789,5.4835,5.4866,5.4867,5.4898,5.488,5.4948,5.4888,5.498,5.4925,5.4952,5.496,5.4964,5.4969,5.4901,5.5005,5.5186,5.5204,5.4975,5.4973,5.4971,0,5.4589,5.4676,5.4758,5.4777,5.4813,5.4852,5.4868,5.4896,5.4927,5.4967,5.4986,5.5034,5.5059,5.5095,5.509,5.5047,5.5184,5.5123,5.5185,5.5186,5.5214,5.5212,5.54,5.5234,5.5234,5.5234,5.5233,0,5.4735,5.4808,5.4808,5.4859,5.494,5.493,5.501,5.5022,5.5047,5.5098,5.5073,5.5121,5.5111,5.5159,5.5156,5.5232,5.5244,5.5246,5.5244,5.5248,5.5247,5.5263,5.5254,5.5239,5.5237,5.5237,5.5236,0,5.4873,5.4876,5.4963,5.499,5.4999,5.5057,5.508,5.5126,5.5131,5.5196,5.5211,5.5218,5.5273,5.5272,5.5334,5.5331,5.5425,5.5414,5.5415,5.5412,5.5474,5.5468,5.5677,5.5704,5.5522,5.5524,5.5525,0,5.4965,5.5021,5.5054,5.5087,5.5106,5.516,5.5191,5.5184,5.5218,5.5258,5.53,5.5353,5.5395,5.5484,5.5494,5.5541,5.553,5.56,5.5537,5.5539,5.5529,5.5526,5.553,5.5612,5.5614,5.5616,5.5617,0,5.5127,5.5126,5.5173,5.5222,5.5261,5.5298,5.5332,5.536,5.5357,5.5396,5.5452,5.5485,5.5549,5.5601,5.5647,5.5662,5.5639,5.5638,5.5654,5.5658,5.5655,5.5656,5.5447,5.5632,5.5631,5.563,5.5629,5.5628,5.5244,5.5292,5.5323,5.5376,5.5402,5.5434,5.548,5.5491,5.5538,5.559,5.5583,5.5646,5.5675,5.5734,5.5754,5.5802,5.5777,5.5802,5.5808,5.5814,5.582,5.5649,5.5811,5.581,5.581,5.581,5.5809,0,5.5404,5.5422,5.5472,5.5521,5.5563,5.5539,5.5576,5.5612,5.5668,5.5698,5.574,5.5804,5.5855,5.587,5.5918,5.5954,5.5945,5.5967,5.5964,5.5967,5.584,5.582,5.5974,5.5974,5.5974,5.5974,5.5974,5.5974,5.5492,5.5571,5.5574,5.5665,5.5683,5.5745,5.5768,5.5797,5.5821,5.5895,5.5937,5.5947,5.5971,5.6021,5.6066,5.6069,5.6087,5.6114,5.6113,5.5993,5.5976,5.5961,5.5942,5.6119,5.6119,5.6236,5.6237,5.6238]}]]